When you browse on this site, cookies collect data to enhance your experience and personalize the content and advertising you see.
Visit our Privacy Policy to learn more. By continuing to use the site, you agree to this use of cookies and data.
  • In Spain
  • List of Countries
  • For 7 days
  • Water Temperature
  • Weather Map
  • Weather Widgets
  • user-avatar
    Login

    Hourly Weather Shibam

    Today, 21 August, Wednesday

    Time Temperature Precipitation Wind Pressure Humidity
    00:00 +19°C° 0 mm 3 mps 560 mmHg 37%
    01:00 +19°C° 0 mm 3 mps 560 mmHg 39%
    02:00 +18°C° 0 mm 2 mps 559 mmHg 40%
    03:00 +18°C° 0 mm 2 mps 558 mmHg 42%
    04:00 +18°C° 0 mm 2 mps 559 mmHg 42%
    05:00 +18°C° 0 mm 1 mps 559 mmHg 42%
    06:00 +18°C° 0 mm 1 mps 559 mmHg 43%
    07:00 +19°C° 0 mm 2 mps 560 mmHg 36%
    08:00 +21°C° 0 mm 3 mps 561 mmHg 30%
    09:00 +23°C° 0 mm 4 mps 562 mmHg 23%
    10:00 +25°C° 0 mm 4 mps 562 mmHg 23%
    11:00 +25°C° 0 mm 5 mps 563 mmHg 23%
    12:00 +26°C° 0 mm 5 mps 563 mmHg 23%
    13:00 +26°C° 0.2 mm 5 mps 562 mmHg 26%
    14:00 +26°C° 0.2 mm 5 mps 562 mmHg 29%
    15:00 +26°C° 0.2 mm 6 mps 561 mmHg 31%
    16:00 +25°C° 0.4 mm 5 mps 560 mmHg 37%
    17:00 +23°C° 0.4 mm 4 mps 560 mmHg 42%
    18:00 +22°C° 0.4 mm 4 mps 560 mmHg 47%
    19:00 +22°C° 0.2 mm 3 mps 560 mmHg 49%
    20:00 +21°C° 0.2 mm 3 mps 560 mmHg 51%
    21:00 +21°C° 0.2 mm 3 mps 560 mmHg 54%
    22:00 +20°C° 0 mm 3 mps 560 mmHg 53%
    23:00 +20°C° 0 mm 3 mps 560 mmHg 52%

    Tomorrow, 22 August, Thursday

    Time Temperature Precipitation Wind Pressure Humidity
    00:00 +20°C° 0 mm 3 mps 560 mmHg 51%
    01:00 +19°C° 0 mm 3 mps 559 mmHg 53%
    02:00 +19°C° 0 mm 2 mps 558 mmHg 55%
    03:00 +18°C° 0 mm 2 mps 558 mmHg 56%
    04:00 +18°C° 0 mm 2 mps 558 mmHg 57%
    05:00 +19°C° 0 mm 1 mps 558 mmHg 58%
    06:00 +19°C° 0 mm 1 mps 558 mmHg 59%
    07:00 +20°C° 0 mm 1 mps 559 mmHg 51%
    08:00 +21°C° 0 mm 2 mps 560 mmHg 43%
    09:00 +22°C° 0 mm 3 mps 561 mmHg 35%
    10:00 +24°C° 0.2 mm 3 mps 561 mmHg 36%
    11:00 +24°C° 0.2 mm 3 mps 561 mmHg 36%
    12:00 +23°C° 0.2 mm 4 mps 561 mmHg 37%
    13:00 +23°C° 0.7 mm 4 mps 561 mmHg 39%
    14:00 +24°C° 0.7 mm 3 mps 560 mmHg 41%
    15:00 +24°C° 0.7 mm 3 mps 560 mmHg 43%
    16:00 +22°C° 0.9 mm 3 mps 559 mmHg 47%
    17:00 +21°C° 0.9 mm 3 mps 559 mmHg 52%
    18:00 +20°C° 0.9 mm 2 mps 559 mmHg 56%
    19:00 +20°C° 0.5 mm 2 mps 559 mmHg 59%
    20:00 +20°C° 0.5 mm 2 mps 559 mmHg 62%
    21:00 +19°C° 0.5 mm 2 mps 559 mmHg 65%
    22:00 +20°C° 0.1 mm 1 mps 559 mmHg 61%
    23:00 +20°C° 0.1 mm 1 mps 559 mmHg 57%

    Day after tomorrow, 23 August, Friday

    Time Temperature Precipitation Wind Pressure Humidity
    00:00 +20°C° 0.1 mm 1 mps 559 mmHg 53%
    01:00 +20°C° 0 mm 1 mps 559 mmHg 55%
    02:00 +19°C° 0 mm 1 mps 558 mmHg 57%
    03:00 +17°C° 0 mm 0 mps 558 mmHg 59%
    04:00 +16°C° 0 mm 0 mps 558 mmHg 59%
    05:00 +16°C° 0 mm 0 mps 558 mmHg 60%
    06:00 +16°C° 0 mm 0 mps 558 mmHg 60%
    07:00 +17°C° 0 mm 0 mps 559 mmHg 52%
    08:00 +21°C° 0 mm 1 mps 560 mmHg 44%
    09:00 +23°C° 0 mm 1 mps 561 mmHg 35%
    10:00 +23°C° 0.2 mm 2 mps 561 mmHg 36%
    11:00 +24°C° 0.2 mm 2 mps 561 mmHg 37%
    12:00 +24°C° 0.2 mm 3 mps 561 mmHg 38%
    13:00 +22°C° 0.9 mm 3 mps 561 mmHg 42%
    14:00 +22°C° 0.9 mm 3 mps 560 mmHg 47%
    15:00 +21°C° 0.9 mm 3 mps 559 mmHg 51%
    16:00 +21°C° 1 mm 3 mps 559 mmHg 53%
    17:00 +20°C° 1 mm 2 mps 559 mmHg 55%
    18:00 +20°C° 1 mm 2 mps 559 mmHg 57%
    19:00 +20°C° 0.5 mm 2 mps 560 mmHg 56%
    20:00 +21°C° 0.5 mm 1 mps 560 mmHg 55%
    21:00 +21°C° 0.5 mm 1 mps 560 mmHg 54%
    22:00 +20°C° 0 mm 1 mps 560 mmHg 56%
    23:00 +18°C° 0 mm 0 mps 560 mmHg 58%

    24 August, Saturday

    Time Temperature Precipitation Wind Pressure Humidity
    00:00 +18°C° 0 mm 0 mps 560 mmHg 61%
    01:00 +18°C° 0 mm 0 mps 559 mmHg 61%
    02:00 +17°C° 0 mm 0 mps 559 mmHg 62%
    03:00 +17°C° 0 mm 0 mps 558 mmHg 62%
    04:00 +17°C° 0 mm 0 mps 558 mmHg 62%
    05:00 +16°C° 0 mm 0 mps 558 mmHg 62%
    06:00 +16°C° 0 mm 0 mps 559 mmHg 63%
    07:00 +17°C° 0 mm 0 mps 560 mmHg 56%
    08:00 +21°C° 0 mm 1 mps 561 mmHg 50%
    09:00 +22°C° 0 mm 1 mps 562 mmHg 44%
    10:00 +21°C° 0.4 mm 2 mps 561 mmHg 43%
    11:00 +23°C° 0.4 mm 2 mps 561 mmHg 42%
    12:00 +23°C° 0.4 mm 2 mps 561 mmHg 41%
    13:00 +22°C° 0.8 mm 3 mps 561 mmHg 44%
    14:00 +21°C° 0.8 mm 3 mps 560 mmHg 47%
    15:00 +21°C° 0.8 mm 4 mps 560 mmHg 49%
    16:00 +20°C° 1.8 mm 3 mps 559 mmHg 55%
    17:00 +19°C° 1.8 mm 2 mps 559 mmHg 61%
    18:00 +19°C° 1.8 mm 1 mps 558 mmHg 66%
    19:00 +19°C° 0.4 mm 1 mps 559 mmHg 65%
    20:00 +19°C° 0.4 mm 1 mps 559 mmHg 64%
    21:00 +19°C° 0.4 mm 1 mps 560 mmHg 62%
    22:00 +19°C° 0 mm 1 mps 560 mmHg 62%
    23:00 +19°C° 0 mm 1 mps 559 mmHg 63%

    25 August, Sunday

    Time Temperature Precipitation Wind Pressure Humidity
    00:00 +19°C° 0 mm 1 mps 559 mmHg 63%
    01:00 +19°C° 0 mm 1 mps 559 mmHg 62%
    02:00 +18°C° 0 mm 1 mps 558 mmHg 61%
    03:00 +16°C° 0 mm 0 mps 558 mmHg 61%
    04:00 +16°C° 0 mm 0 mps 558 mmHg 60%
    05:00 +16°C° 0 mm 0 mps 558 mmHg 60%
    06:00 +15°C° 0 mm 0 mps 558 mmHg 60%
    07:00 +19°C° 0 mm 1 mps 559 mmHg 53%
    08:00 +20°C° 0 mm 1 mps 560 mmHg 46%
    09:00 +22°C° 0 mm 1 mps 561 mmHg 39%
    10:00 +23°C° 0 mm 2 mps 561 mmHg 37%
    11:00 +24°C° 0 mm 2 mps 561 mmHg 34%
    12:00 +25°C° 0 mm 3 mps 562 mmHg 32%
    13:00 +23°C° 0.6 mm 4 mps 561 mmHg 38%
    14:00 +22°C° 0.6 mm 4 mps 560 mmHg 44%
    15:00 +22°C° 0.6 mm 5 mps 560 mmHg 50%
    16:00 +21°C° 0.7 mm 4 mps 559 mmHg 53%
    17:00 +21°C° 0.7 mm 4 mps 559 mmHg 55%
    18:00 +20°C° 0.7 mm 3 mps 559 mmHg 58%
    19:00 +20°C° 0.1 mm 2 mps 559 mmHg 58%
    20:00 +20°C° 0.1 mm 2 mps 560 mmHg 59%
    21:00 +21°C° 0.1 mm 1 mps 560 mmHg 59%
    22:00 +20°C° 0 mm 1 mps 559 mmHg 60%
    23:00 +20°C° 0 mm 1 mps 559 mmHg 60%

    26 August, Monday

    Time Temperature Precipitation Wind Pressure Humidity
    00:00 +20°C° 0 mm 1 mps 559 mmHg 60%
    01:00 +20°C° 0 mm 1 mps 558 mmHg 61%
    02:00 +19°C° 0 mm 1 mps 558 mmHg 63%
    03:00 +19°C° 0 mm 1 mps 558 mmHg 65%
    04:00 +18°C° 0 mm 1 mps 558 mmHg 65%
    05:00 +18°C° 0 mm 1 mps 558 mmHg 66%
    06:00 +18°C° 0 mm 1 mps 558 mmHg 66%
    07:00 +19°C° 0 mm 1 mps 559 mmHg 59%
    08:00 +21°C° 0 mm 1 mps 560 mmHg 52%
    09:00 +22°C° 0 mm 1 mps 561 mmHg 45%
    10:00 +23°C° 0.1 mm 2 mps 561 mmHg 41%
    11:00 +24°C° 0.1 mm 3 mps 561 mmHg 38%
    12:00 +24°C° 0.1 mm 3 mps 561 mmHg 34%
    13:00 +23°C° 0.5 mm 4 mps 561 mmHg 37%
    14:00 +23°C° 0.5 mm 4 mps 560 mmHg 41%
    15:00 +23°C° 0.5 mm 4 mps 560 mmHg 44%
    16:00 +22°C° 0.3 mm 3 mps 559 mmHg 50%
    17:00 +21°C° 0.3 mm 3 mps 559 mmHg 57%
    18:00 +20°C° 0.3 mm 2 mps 558 mmHg 64%
    19:00 +19°C° 0 mm 2 mps 559 mmHg 64%
    20:00 +19°C° 0 mm 2 mps 559 mmHg 65%
    21:00 +20°C° 0 mm 1 mps 559 mmHg 66%
    22:00 +20°C° 0 mm 1 mps 559 mmHg 64%
    23:00 +20°C° 0 mm 1 mps 559 mmHg 61%
    Show more